�N����,����,�~����,�C��,���x,�C��,����,���ϕ���,�ő�u�ԕ���,�ő厞����,���˗�,�I�_���x,�n�����x,�ő啗���N��,DTYPE
"16/04/22","00:10",0.0,14.9,96.9,998.2,214.0,0.6,1.1,152.1,0.00,14.5,14.9,"00:04:24",1
"16/04/22","00:20",0.0,15.0,96.9,998.2,204.3,0.6,1.1,336.6,0.00,14.6,15.2,"00:10:32",1
"16/04/22","00:30",0.0,15.0,97.0,997.9,131.1,0.8,1.9,123.7,0.00,14.6,15.0,"00:29:52",1
"16/04/22","00:40",0.0,15.1,96.9,998.4,145.4,0.8,1.7,147.0,0.00,14.7,15.2,"00:38:40",1
"16/04/22","00:50",0.0,15.1,96.9,998.9,128.8,0.6,1.3,123.6,0.00,14.7,15.0,"00:44:40",1
"16/04/22","01:00",0.0,15.1,96.9,998.9,171.6,0.3,1.0,183.6,0.00,14.7,15.2,"00:50:40",1
"16/04/22","01:10",0.0,15.1,96.9,998.6,291.9,0.2,0.8,15.3,0.00,14.7,15.1,"01:08:08",1
"16/04/22","01:20",0.0,15.0,96.9,998.6,0.8,0.3,0.9,347.0,0.00,14.6,15.1,"01:17:36",1
"16/04/22","01:30",0.0,14.9,96.9,998.4,240.8,0.2,0.5,355.4,0.00,14.5,15.0,"01:21:44",1
"16/04/22","01:40",0.0,14.9,97.0,998.6,347.1,0.7,1.2,348.0,0.00,14.5,15.0,"01:38:16",1
"16/04/22","01:50",0.0,14.8,97.1,998.6,350.6,0.6,1.7,347.5,0.00,14.4,15.1,"01:42:48",1
"16/04/22","02:00",0.0,14.8,97.1,998.6,104.8,0.2,0.6,85.0,0.00,14.4,15.0,"01:51:44",1
"16/04/22","02:10",0.0,14.6,97.1,998.9,93.6,1.0,1.8,349.2,0.00,14.2,15.1,"02:08:00",1
"16/04/22","02:20",0.0,14.5,97.2,998.9,357.8,0.7,1.4,341.7,0.00,14.1,15.0,"02:16:56",1
"16/04/22","02:30",0.0,14.6,97.4,998.9,304.5,0.7,1.4,18.9,0.00,14.2,15.1,"02:22:08",1
"16/04/22","02:40",0.0,14.6,97.5,999.1,278.2,0.6,1.1,300.0,0.00,14.2,15.0,"02:39:36",1
"16/04/22","02:50",0.0,14.7,97.5,998.9,332.9,0.5,1.0,339.0,0.00,14.3,15.1,"02:44:16",1
"16/04/22","03:00",0.0,14.7,97.5,999.1,16.3,0.3,0.8,44.2,0.00,14.3,14.9,"02:59:52",1
"16/04/22","03:10",0.0,14.6,97.4,998.9,351.3,0.5,1.0,54.8,0.00,14.2,15.0,"03:00:24",1
"16/04/22","03:20",0.0,14.7,97.6,999.1,325.1,0.5,0.9,298.1,0.00,14.4,14.9,"03:10:40",1
"16/04/22","03:30",0.0,14.7,97.7,999.3,252.8,0.2,0.5,266.7,0.00,14.4,14.9,"03:24:32",1
"16/04/22","03:40",0.0,15.0,97.7,999.6,248.6,0.3,1.2,232.0,0.00,14.7,15.0,"03:34:08",1
"16/04/22","03:50",0.0,15.0,97.7,999.6,273.0,0.6,1.2,355.8,0.00,14.7,14.9,"03:46:40",1
"16/04/22","04:00",0.0,15.1,97.7,999.8,15.4,0.7,1.3,6.5,0.00,14.8,15.0,"03:57:12",1
"16/04/22","04:10",0.0,15.1,97.6,999.6,260.5,0.5,1.1,223.6,0.00,14.8,15.1,"04:05:28",1
"16/04/22","04:20",0.0,15.1,97.7,999.8,276.7,0.5,0.9,226.3,0.00,14.8,15.0,"04:17:44",1
"16/04/22","04:30",0.0,15.1,97.7,999.6,327.6,0.7,1.3,354.6,0.00,14.8,14.8,"04:25:28",1
"16/04/22","04:40",0.0,15.1,97.7,1000.0,355.5,0.5,0.9,343.1,0.00,14.8,15.0,"04:36:40",1
"16/04/22","04:50",0.0,15.1,97.8,1000.5,274.9,0.2,1.0,354.6,0.00,14.8,14.9,"04:40:08",1
"16/04/22","05:00",0.0,15.2,97.8,1000.3,312.5,0.2,1.0,348.4,0.00,14.9,14.9,"04:55:12",1
"16/04/22","05:10",0.2,15.3,97.7,1000.3,321.5,0.3,0.8,0.9,0.00,15.0,14.8,"05:03:44",1
"16/04/22","05:20",0.0,15.3,97.9,1000.3,241.3,0.5,1.3,41.8,0.00,15.0,14.8,"05:19:36",1
"16/04/22","05:30",0.0,15.4,97.9,1000.5,357.0,0.5,1.6,15.5,0.00,15.1,15.1,"05:27:44",1
"16/04/22","05:40",0.0,15.7,97.8,1000.5,335.9,1.1,1.8,337.0,0.00,15.4,15.1,"05:37:04",1
"16/04/22","05:50",0.0,15.9,97.6,1000.8,348.8,1.1,1.9,342.5,0.00,15.6,15.0,"05:47:28",1
"16/04/22","06:00",0.0,16.0,97.6,1000.8,342.7,1.3,2.7,322.8,0.01,15.7,14.8,"05:59:36",1
"16/04/22","06:10",0.0,16.4,97.1,1000.5,320.3,1.1,2.2,337.7,0.00,16.0,14.9,"06:01:28",1
"16/04/22","06:20",0.0,16.3,96.9,1001.5,334.6,1.1,2.1,337.3,0.00,15.8,14.9,"06:10:32",1
"16/04/22","06:30",0.0,16.4,96.7,1001.5,350.0,0.7,1.8,348.4,0.00,15.9,14.9,"06:23:36",1
"16/04/22","06:40",0.0,16.5,96.1,1001.7,326.2,0.7,1.3,326.9,0.04,15.9,15.0,"06:37:12",1
"16/04/22","06:50",0.0,17.1,91.8,1001.7,321.6,1.6,2.9,349.7,0.08,15.8,15.0,"06:43:20",1
"16/04/22","07:00",0.0,18.0,85.3,1002.2,327.9,2.3,4.4,332.6,0.12,15.5,15.2,"06:52:40",1
"16/04/22","07:10",0.0,18.4,83.0,1002.2,326.4,2.1,3.1,346.2,0.13,15.5,15.1,"07:06:48",1
"16/04/22","07:20",0.0,18.3,81.3,1002.9,311.1,2.3,4.7,331.8,0.16,15.1,14.9,"07:17:52",1
"16/04/22","07:30",0.0,18.5,78.0,1003.1,297.6,2.5,4.8,336.4,0.16,14.6,15.3,"07:27:36",1
"16/04/22","07:40",0.0,18.0,79.0,1003.1,307.3,2.5,5.1,337.3,0.06,14.3,15.0,"07:33:12",1
"16/04/22","07:50",0.0,17.9,80.3,1003.1,306.9,2.1,3.7,336.0,0.06,14.5,15.5,"07:43:20",1
"16/04/22","08:00",0.0,17.8,79.7,1002.6,322.6,2.0,3.3,335.3,0.06,14.3,15.5,"07:51:28",1
"16/04/22","08:10",0.0,17.9,79.4,1003.1,323.7,2.0,3.4,331.1,0.09,14.3,15.5,"08:00:24",1
"16/04/22","08:20",0.0,17.8,76.6,1003.1,329.1,2.3,3.6,344.4,0.11,13.7,15.2,"08:13:52",1
"16/04/22","08:30",0.0,18.3,75.5,1003.1,329.0,2.2,3.2,345.7,0.18,13.9,15.6,"08:24:56",1
"16/04/22","08:40",0.0,17.9,74.9,1002.9,305.9,2.0,4.2,303.2,0.16,13.4,15.6,"08:35:28",1
"16/04/22","08:50",0.0,18.0,76.7,1003.1,301.4,2.0,3.7,330.0,0.13,13.9,15.7,"08:40:08",1
"16/04/22","09:00",0.0,18.1,75.6,1003.4,303.8,2.1,4.0,317.6,0.16,13.8,15.7,"08:52:00",1
"16/04/22","09:10",0.0,18.3,75.6,1003.4,296.6,2.1,3.2,306.3,0.22,14.0,15.7,"09:08:32",1
"16/04/22","09:20",0.0,18.6,73.9,1003.8,279.3,2.2,4.0,299.7,0.29,13.9,15.8,"09:17:44",1
"16/04/22","09:30",0.0,18.4,74.2,1003.8,292.6,2.1,3.3,330.8,0.22,13.8,15.9,"09:20:08",1
"16/04/22","09:40",0.0,18.7,73.2,1003.1,289.7,1.7,4.0,281.8,0.23,13.8,16.1,"09:34:00",1
"16/04/22","09:50",0.0,19.0,72.9,1003.6,338.6,1.6,3.5,338.9,0.22,14.1,16.4,"09:43:12",1
"16/04/22","10:00",0.0,18.9,71.5,1003.8,324.6,1.8,3.3,344.6,0.18,13.7,16.0,"09:52:32",1
"16/04/22","10:10",0.0,19.4,66.0,1003.8,341.7,1.6,3.2,346.4,0.25,12.9,16.3,"10:09:52",1
"16/04/22","10:20",0.0,19.4,66.2,1004.1,0.5,2.1,3.3,342.4,0.31,13.0,16.5,"10:14:00",1
"16/04/22","10:30",0.0,19.1,69.4,1003.6,338.0,2.5,4.8,340.2,0.19,13.4,16.5,"10:24:40",1
"16/04/22","10:40",0.0,19.8,69.8,1003.6,308.4,1.7,2.8,340.6,0.31,14.2,16.5,"10:30:08",1
"16/04/22","10:50",0.0,20.0,67.9,1003.6,313.5,1.3,2.2,328.5,0.30,13.9,16.5,"10:46:32",1
"16/04/22","11:00",0.0,19.9,66.2,1003.1,324.6,1.7,4.2,328.5,0.27,13.5,17.0,"10:57:12",1
"16/04/22","11:10",0.0,20.1,62.0,1003.4,31.5,1.7,4.1,354.8,0.50,12.6,16.9,"11:02:40",1
"16/04/22","11:20",0.0,20.2,62.9,1002.9,60.6,2.0,5.0,112.4,0.30,13.0,17.0,"11:11:36",1
"16/04/22","11:30",0.0,20.4,62.2,1003.1,22.6,1.5,3.4,20.6,0.31,13.0,17.0,"11:27:36",1
"16/04/22","11:40",0.0,20.6,61.7,1003.4,33.5,1.5,3.3,15.7,0.27,13.0,17.2,"11:39:12",1
"16/04/22","11:50",0.0,20.5,61.8,1003.4,359.3,2.2,4.4,3.9,0.26,13.0,17.3,"11:43:04",1
"16/04/22","12:00",0.0,20.5,61.6,1003.4,346.3,2.1,4.2,347.3,0.23,12.9,17.4,"11:51:04",1
"16/04/22","12:10",0.0,20.5,61.5,1003.1,343.4,2.1,5.4,352.1,0.22,12.9,17.4,"12:03:52",1
"16/04/22","12:20",0.0,20.4,60.8,1003.1,4.7,2.1,5.1,16.1,0.28,12.6,17.5,"12:11:52",1
"16/04/22","12:30",0.0,21.0,60.3,1003.4,18.4,1.3,4.3,338.4,0.30,13.1,17.6,"12:29:20",1
"16/04/22","12:40",0.0,20.7,60.2,1003.1,358.7,2.0,3.3,338.2,0.27,12.8,17.5,"12:35:36",1
"16/04/22","12:50",0.0,20.7,61.3,1003.1,350.6,2.5,4.8,354.8,0.27,13.0,17.4,"12:41:04",1
"16/04/22","13:00",0.0,21.3,61.7,1002.9,349.0,2.2,5.6,358.9,0.38,13.7,17.8,"12:51:52",1
"16/04/22","13:10",0.0,21.7,59.8,1002.6,5.6,1.7,4.1,338.6,0.40,13.6,17.9,"13:01:04",1
"16/04/22","13:20",0.0,21.1,62.9,1002.9,333.3,2.7,6.6,328.5,0.31,13.8,17.9,"13:12:56",1
"16/04/22","13:30",0.0,20.9,60.8,1002.4,351.0,2.6,5.8,344.5,0.29,13.1,18.1,"13:28:32",1
"16/04/22","13:40",0.0,21.1,63.1,1002.4,345.0,2.1,4.8,343.7,0.22,13.9,18.1,"13:32:32",1
"16/04/22","13:50",0.0,21.5,61.8,1002.4,341.5,2.3,4.4,345.3,0.34,13.9,18.3,"13:42:48",1
"16/04/22","14:00",0.0,21.8,60.0,1002.4,353.4,1.5,3.1,320.3,0.32,13.7,18.2,"13:50:48",1
"16/04/22","14:10",0.0,22.5,55.2,1002.6,1.2,1.7,3.6,308.7,0.50,13.1,18.6,"14:02:16",1
"16/04/22","14:20",0.0,22.8,55.6,1001.9,151.9,0.7,2.2,119.1,0.49,13.5,18.4,"14:16:24",1
"16/04/22","14:30",0.0,23.4,53.1,1002.2,332.5,1.0,2.7,332.5,0.56,13.4,18.7,"14:23:44",1
"16/04/22","14:40",0.0,23.6,52.7,1001.7,339.5,1.0,2.9,4.2,0.53,13.4,18.7,"14:33:44",1
"16/04/22","14:50",0.0,23.5,53.8,1001.7,68.0,1.2,2.7,355.4,0.50,13.6,19.0,"14:42:08",1
"16/04/22","15:00",0.0,23.7,54.6,1001.5,1.6,0.7,2.9,353.3,0.43,14.1,19.1,"14:57:44",1
"16/04/22","15:10",0.0,22.9,56.3,1001.2,312.8,1.5,3.1,340.6,0.35,13.8,19.2,"15:01:44",1
"16/04/22","15:20",0.0,23.7,52.1,1001.5,284.2,1.0,2.5,311.7,0.41,13.3,19.4,"15:10:40",1
"16/04/22","15:30",0.2,23.8,51.8,1001.7,92.8,1.1,2.8,109.3,0.37,13.3,19.5,"15:27:36",1
"16/04/22","15:40",0.0,24.6,49.7,1001.5,323.9,1.1,2.9,341.0,0.35,13.4,19.7,"15:30:32",1
"16/04/22","15:50",0.0,24.8,47.4,1001.2,307.4,1.2,4.0,333.5,0.32,12.9,19.6,"15:44:00",1
"16/04/22","16:00",0.0,24.4,48.7,1001.0,179.2,0.8,3.2,118.1,0.29,12.9,19.7,"15:53:36",1
"16/04/22","16:10",0.0,23.2,56.2,1001.2,125.0,2.6,4.5,110.1,0.26,14.0,19.8,"16:06:16",1
"16/04/22","16:20",0.0,22.5,57.8,1001.5,113.8,2.7,5.1,116.9,0.23,13.8,19.7,"16:11:36",1
"16/04/22","16:30",0.0,22.4,58.2,1001.7,144.8,2.2,4.4,120.2,0.20,13.8,19.6,"16:25:12",1
"16/04/22","16:40",0.0,22.4,58.9,1001.5,171.6,2.1,4.2,211.1,0.18,14.0,19.5,"16:34:56",1
"16/04/22","16:50",0.0,22.1,58.1,1001.5,165.4,1.8,4.9,189.2,0.15,13.5,19.6,"16:49:20",1
"16/04/22","17:00",0.0,21.5,60.3,1002.2,197.4,2.6,4.9,197.4,0.09,13.5,19.7,"16:54:32",1
"16/04/22","17:10",0.0,21.3,61.8,1002.4,212.7,2.3,4.8,230.5,0.06,13.7,19.5,"17:03:20",1
"16/04/22","17:20",0.0,21.4,61.1,1002.6,219.2,1.6,3.1,223.9,0.04,13.6,19.5,"17:11:36",1
"16/04/22","17:30",0.0,21.2,61.6,1002.6,222.9,1.3,2.9,205.5,0.03,13.6,19.4,"17:29:44",1
"16/04/22","17:40",0.0,20.9,62.5,1002.9,206.8,2.0,3.1,194.3,0.02,13.5,19.3,"17:35:52",1
"16/04/22","17:50",0.0,20.5,63.0,1003.1,209.4,1.6,2.6,202.4,0.01,13.3,19.3,"17:42:40",1
"16/04/22","18:00",0.0,20.1,65.3,1003.1,190.6,1.0,1.7,216.1,0.00,13.4,19.3,"17:57:12",1
"16/04/22","18:10",0.0,19.8,65.9,1003.6,222.8,1.0,1.8,241.2,0.00,13.3,19.1,"18:08:08",1
"16/04/22","18:20",0.0,19.5,67.2,1003.4,220.4,0.6,1.7,223.0,0.00,13.3,18.9,"18:10:32",1
"16/04/22","18:30",0.0,19.0,71.6,1003.8,245.9,0.8,1.9,234.2,0.00,13.8,18.7,"18:22:56",1
"16/04/22","18:40",0.0,18.3,75.0,1003.6,285.7,0.6,1.1,303.0,0.00,13.8,18.5,"18:31:04",1
"16/04/22","18:50",0.0,17.7,77.3,1003.8,330.2,1.1,1.8,345.3,0.00,13.7,18.6,"18:47:36",1
"16/04/22","19:00",0.0,17.1,80.1,1004.1,330.7,1.6,2.2,337.2,0.00,13.7,18.5,"18:53:04",1
"16/04/22","19:10",0.0,16.7,81.6,1003.6,282.3,0.7,1.4,312.1,0.00,13.6,18.3,"19:00:08",1
"16/04/22","19:20",0.0,16.6,80.4,1004.1,156.9,0.6,1.7,108.4,0.00,13.3,18.2,"19:18:08",1
"16/04/22","19:30",0.0,16.3,81.9,1004.1,338.2,1.2,2.1,338.9,0.00,13.2,18.1,"19:28:48",1
"16/04/22","19:40",0.0,15.9,83.9,1004.3,337.5,1.6,2.2,336.1,0.00,13.2,18.1,"19:34:56",1
"16/04/22","19:50",0.0,15.5,85.3,1004.3,315.4,1.1,1.8,338.4,0.00,13.1,17.9,"19:41:04",1
"16/04/22","20:00",0.0,15.1,86.7,1004.5,296.4,0.8,1.4,310.7,0.00,12.9,18.0,"19:53:52",1
"16/04/22","20:10",0.0,15.0,87.9,1004.5,283.2,0.8,1.3,310.4,0.00,13.1,17.8,"20:03:52",1
"16/04/22","20:20",0.0,14.9,88.5,1004.3,288.8,1.0,1.4,283.6,0.00,13.1,17.8,"20:17:36",1
"16/04/22","20:30",0.0,14.7,88.6,1004.8,288.7,0.8,1.2,322.4,0.00,12.9,17.6,"20:20:48",1
"16/04/22","20:40",0.0,14.5,89.4,1005.0,292.3,1.0,1.4,304.6,0.00,12.8,17.5,"20:39:44",1
"16/04/22","20:50",0.0,14.3,90.0,1005.0,324.4,1.6,2.4,333.1,0.00,12.7,17.4,"20:45:52",1
"16/04/22","21:00",0.0,14.1,91.0,1005.5,322.5,1.3,1.9,338.8,0.00,12.7,17.3,"20:55:52",1
"16/04/22","21:10",0.0,14.0,91.6,1004.8,309.8,1.2,1.9,323.9,0.00,12.7,17.2,"21:07:44",1
"16/04/22","21:20",0.0,13.8,91.9,1005.2,294.9,1.2,1.6,312.4,0.00,12.5,17.1,"21:10:24",1
"16/04/22","21:30",0.0,13.8,92.2,1005.2,292.5,1.3,2.0,310.7,0.00,12.6,16.9,"21:24:08",1
"16/04/22","21:40",0.0,13.9,92.1,1005.7,287.4,1.2,2.0,310.5,0.00,12.7,17.1,"21:38:56",1
"16/04/22","21:50",0.0,14.0,91.6,1005.5,304.5,1.7,2.9,309.9,0.00,12.7,16.8,"21:45:12",1
"16/04/22","22:00",0.0,14.0,90.7,1005.5,291.8,1.1,1.7,330.0,0.00,12.5,16.8,"21:50:32",1
"16/04/22","22:10",0.0,13.9,90.7,1005.7,315.2,1.5,2.2,330.1,0.00,12.4,16.6,"22:05:52",1
"16/04/22","22:20",0.0,13.8,91.0,1006.0,333.0,1.2,2.1,334.8,0.00,12.4,16.7,"22:11:36",1
"16/04/22","22:30",0.0,13.7,90.7,1006.0,313.4,1.1,1.9,335.4,0.00,12.2,16.6,"22:29:36",1
"16/04/22","22:40",0.0,13.9,89.9,1005.7,329.0,2.2,3.6,323.2,0.00,12.3,16.4,"22:39:28",1
"16/04/22","22:50",0.0,14.2,87.9,1005.5,333.0,2.5,3.9,333.3,0.00,12.3,16.6,"22:44:16",1
"16/04/22","23:00",0.0,14.3,86.4,1006.4,336.9,2.6,4.0,328.9,0.00,12.1,16.5,"22:59:20",1
"16/04/22","23:10",0.0,14.5,85.6,1006.0,339.9,2.2,3.4,349.7,0.00,12.2,16.4,"23:02:00",1
"16/04/22","23:20",0.0,14.3,85.4,1006.0,336.7,2.0,3.2,322.5,0.00,11.9,16.2,"23:18:56",1
"16/04/22","23:30",0.0,13.8,86.4,1006.0,321.5,1.0,1.9,336.2,0.00,11.6,16.1,"23:28:32",1
"16/04/22","23:40",0.0,13.4,88.2,1006.0,45.0,0.7,1.7,1.5,0.00,11.5,16.4,"23:39:52",1
"16/04/22","23:50",0.0,13.2,89.2,1006.0,326.4,1.5,2.1,337.6,0.00,11.5,16.1,"23:48:56",1
"16/04/22","24:00",0.0,13.0,90.1,1006.2,299.6,1.2,2.4,319.8,0.00,11.5,16.1,"23:52:40",1
